Regional Weather Roundup
Issued by NWS Pendleton, OR

Home | Current Version | Previous Version | Text Only | Print | Product List | Glossary On
Versions: 1 2 3 4 5 6 7 8 9 10 11 12 13 14 15 16 17 18 19 20 21 22 23 24 25 26 27 28 29 30 31 32 33 34 35 36 37 38 39 40 41 42 43 44 45 46 47 48 49 50
000
ASUS46 KPDT 251325
RWRPDT
PENDLETON REGIONAL WEATHER ROUNDUP
NATIONAL WEATHER SERVICE PENDLETON OREGON
600 AM PDT SAT OCT 25 2014

NOTE: FAIR INDICATES FEW OR NO CLOUDS BELOW 12,000 FEET WITH NO
SIGNIFICANT WEATHER AND/OR OBSTRUCTIONS TO VISIBILITY.

# INDICATES UNOFFICIAL STATION AND DATA

WAZ520-251410-
EAST SLOPES OF WASHINGTON CASCADES

CITY            SKY/WX      TMP DP  RH  WIND    PRES   REMARKS
#BULLFROG 2SW   N/A         63  42  46  CALM    29.70S
#BUMPING DAM    N/A         42  N/A N/A N6      N/A
#CLE ELUM HS    N/A         46  44  93  CALM    29.68F
#CLE ELUM 2NW   N/A         44  43  96  E1      N/A
#CLE ELUM LAKE  N/A         N/A N/A N/A CALM    29.66F
#CLIFFDEL 2NW   N/A         43  43  100 S1      N/A
#GLENWOOD       N/A         47  45  93  CALM    29.66F
#MANASTASH CYN  N/A         44  42  93  CALM    29.69F
#NELSON         N/A         43  42  96  CALM    29.71F
#NELSON 3SW     N/A         43  42  96  CALM    29.92F
#NILE           N/A         43  42  96  CALM    28.98F
#RONALD 2NW     N/A         43  42  96  N1      29.57F
#SNOWDEN        N/A         46  42  86  CALM    N/A
#TEANAWAY 4NE   N/A         44  44  100 CALM    N/A
#TROUT LAKE 1NE N/A         48  45  89  S1      29.64F
$$

WAZ521-251410-
SIMCOE HIGHLANDS

CITY            SKY/WX      TMP DP  RH  WIND    PRES   REMARKS
#BICKLETON HS   N/A         45  44  96  N5      29.79F
#CENTERVILLE 4W N/A         46  44  93  SE2     29.43F
#CENTERVILLE 1SWN/A         44  42  93  CALM    29.64F
#GOLDENDALE     N/A         45  45  100 SE45G73 N/A    WCI 33
#GOLDENDALE 1NE N/A         42  42  100 CALM    N/A
#GOLDENDALE 1S  N/A         43  42  96  CALM    29.66F
#GOLDENDALE 5WNWN/A         44  43  96  CALM    29.65F
#GOODNOE HILLS  N/A         47  47  100 E3      29.62F
#LYLE 6NE       N/A         46  45  96  CALM    29.65F
$$

WAZ026-251410-
KITTITAS VALLEY

CITY            SKY/WX      TMP DP  RH  WIND    PRES   REMARKS
ELLENSBURG AP   PTCLDY      45  41  86  N3      29.69F FOG
#ELLENSBURG CWU N/A         44  43  96  W2      29.66F
#ELLENSBURG 3NE N/A         43  42  96  N1      29.72F
#ELLENSBURG     N/A         48  48  100 CALM    N/A
#KITTITAS 3S    N/A         44  43  96  CALM    29.70F
#THORP 6N       N/A         45  43  93  CALM    29.73F
$$

WAZ027-251410-
YAKIMA VALLEY

CITY            SKY/WX      TMP DP  RH  WIND    PRES   REMARKS
SUNNYSIDE AP    FOG         43  43  100 CALM    29.69F VSB 1/4
YAKIMA AIRPORT  CLOUDY      50  46  86  W6      29.70F
YAKIMA-VAGABOND CLOUDY      47  44  89  E8      29.71F
#COWICHE 1N     N/A         47  44  89  CALM    29.85F
#DONALD 2NE     N/A         48  45  89  S1      30.01F
#GRANDVIEW      N/A         44  42  93  CALM    29.70F
#MABTON         N/A         47  45  93  CALM    29.68F
#MOXEE 2E       N/A         45  45  100 CALM    29.68F
#NACHES 2SW     N/A         47  46  96  CALM    29.79S
#OUTLOOK DOT    N/A         N/A N/A N/A CALM    N/A
#SELAH 8E       N/A         47  44  89  E9      N/A
#TERRACE HTS    N/A         49  45  86  CALM    29.67F
#TOPPENISH      N/A         48  45  89  CALM    29.62F
#WAPATO 4NE     N/A         48  45  89  S1      30.01F
#WEST VALLEY    N/A         49  45  86  N2      29.68F
#W YAKIMA       N/A         48  45  89  NW3     29.69F
#WHITE SWAN 5E  N/A         50  48  93  SW2     29.70F
#WILEY CITY 3W  N/A         47  33  58  CALM    29.96S
$$

WAZ028-251410-
LOWER COLUMBIA BASIN...WASHINGTON

CITY            SKY/WX      TMP DP  RH  WIND    PRES   REMARKS
PASCO           CLOUDY      48  47  96  CALM    29.71F
PROSSER AWOS    N/A         45  45  100 E1      29.71F
RICHLAND AWOS   CLOUDY      50  46  86  N3      29.72F
#BASIN CITY 5SW N/A         48  45  89  CALM    29.70F
#CONNELL 5N     N/A         46  44  93  CALM    29.70F
#CONNELL 5NW    N/A         44  42  93  CALM    29.67F
#ELTOPIA        N/A         46  45  96  CALM    29.66F
#ELTOPIA 6NW    N/A         46  45  96  N6      28.67F
#KENNEWICK      N/A         63  42  46  CALM    29.70S
#KENNEWICK 3S   N/A         48  47  96  CALM    29.71F
#PASCO-BROADMOORN/A         50  48  93  NE2     29.60F
#PATERSON       N/A         48  45  89  NE1     29.69F
#PROSSER        N/A         47  44  89  CALM    29.70F
#SAGEMOOR 2W    N/A         47  45  93  NW3     29.55F
#TOUCHET 2S     N/A         50  48  93  CALM    29.70F
#WEST PASCO     N/A         50  46  86  N1      29.70F
$$

WAZ029-251410-
FOOTHILLS OF THE BLUES...WASHINGTON

CITY            SKY/WX      TMP DP  RH  WIND    PRES   REMARKS
WALLA WALLA AP  FOG         49  48  96  S7      29.71S VSB 1/4
#LOWDEN 2SE     N/A         49  48  96  W1      29.68F
#PLEASANT VIEW 1N/A         46  45  96  S6      29.74S
#PRESCOTT       N/A         49  48  96  CALM    29.68F
#WHITMAN COLLEGEN/A         48  47  96  S3      29.75F
#WAITSBURG 8N   N/A         46  46  100 S3      29.71R
#WALLA WALLA 5E N/A         47  46  96  CALM    N/A
#WALLA WALLA U  N/A         49  48  96  CALM    29.71S
#WHITMAN MISSIONN/A         50  49  96  CALM    29.72S
$$

WAZ030-251410-
BLUE MOUNTAINS...WASHINGTON

CITY            SKY/WX      TMP DP  RH  WIND    PRES   REMARKS
$$

ORZ009-041-WAZ024-251410-
COLUMBIA RIVER GORGE

CITY            SKY/WX      TMP DP  RH  WIND    PRES   REMARKS
HOOD RIVER AP   CLOUDY      52  48  86  CALM    29.67F
THE DALLES AP   CLOUDY      52  49  89  S3      29.68F
#ARLINGTON AIRPON/A         48  46  93  E2      29.99S
#ARLINGTON HS   N/A         50  47  89  CALM    29.61F
#CELILO DOT     N/A         52  46  80  CALM    N/A
#LYLE           N/A         53  51  93  SE1     29.69F
#MARYHILL 2W    N/A         51  49  93  CALM    N/A
#MOSIER 1S      N/A         49  48  96  CALM    N/A
#MURDOCK        N/A         52  51  96  E2      29.69F
#RUFUS DOT      N/A         51  47  86  NE3     N/A

$$

ORZ510-251410-
NORTH CENTRAL OREGON

CITY            SKY/WX      TMP DP  RH  WIND    PRES   REMARKS
#CHENOWITH 1W   N/A         46  46  100 SE10    N/A
#COW CYN RST AREN/A         43  N/A N/A N1      N/A
#DUFUR 9E       N/A         46  45  96  E18     29.70F WCI 39
#GRASS VALLEY   N/A         44  44  100 NE3     N/A
#GRASS VALLEY 1SN/A         45  44  96  E3      29.70F
#KENT DOT       N/A         44  41  89  E3      N/A
#MAUPIN SCHOOL  N/A         51  46  83  CALM    28.55F
#MORO SCHOOL    N/A         47  47  100 NE1     29.70F
#SHANIKO 5WSW   N/A         42  39  89  N6      N/A
#SHANIKO 4NW    N/A         42  42  100 E6      29.64F
#TYGH VALLEY 2NEN/A         50  46  86  NE3     29.66F
#WAPANITIA AIRPON/A         46  45  96  NE1     29.67F
#WASCO DOT      N/A         48  46  93  NE3     N/A
#WASCO 5NE      N/A         46  44  93  E1      29.68F
$$

ORZ511-251410-
CENTRAL OREGON

CITY            SKY/WX      TMP DP  RH  WIND    PRES   REMARKS
BEND AIRPORT    FOG         43  43  100 W3      29.65F VSB 1/2
MADRAS AIRPORT  CLOUDY      46  46  100 N5      29.67F FOG
PRINEVILLE AP   FOG         41  41  100 W5      29.63F VSB<1/4
REDMOND AIRPORT FOG         44  43  96  VRB3    29.64F VSB 1/2
#BEND 6E        N/A         42  40  93  CALM    29.60R
#BEND 1SW       N/A         40  40  100 E1      N/A
#BEND-KIM LN    N/A         43  42  96  CALM    29.60F
#CULVER         N/A         45  43  93  CALM    29.61F
#LAKE BILLY CHINN/A         47  47  100 N3      29.73F
#POWELL BUTTE 3EN/A         42  42  100 E1      N/A
#POWELL BUTTE   N/A         42  39  89  CALM    29.30F
#PRINEVILLE 3N  N/A         42  41  96  CALM    29.57F
#WARM SPRINGS   N/A         49  48  96  CALM    29.64F


ORZ509-251410-
EAST SLOPES OF OREGON CASCADES

CITY            SKY/WX      TMP DP  RH  WIND    PRES   REMARKS
#CAMP SHERMAN   N/A         44  42  93  CALM    29.61F
#LA PINE DOT    N/A         51  28  41  SE6     N/A
#LA PINE 4NW    N/A         50  37  61  S2      29.64F
#LAVA BUTTE DOT N/A         48  33  56  SE1     N/A
#SISTERS AIRPOR N/A         43  43  100 N1      29.91S
#SISTERS ODOT   N/A         43  N/A N/A CALM    N/A
#SISTERS 1NW    N/A         44  42  93  E6      N/A
#SISTERS 3N     N/A         44  41  89  CALM    29.72S
#SUNRIVER       N/A         51  41  68  W3      29.49F
#SUNRIVER AP    N/A         53  39  59  W12     29.56F
#SUTTLE LK DOT  N/A         37  37  100 E24G32  N/A    WCI 26
#TUMALO 3W      N/A         42  41  96  E2      29.52F
#WANOGA BUTTE D N/A         43  35  73  W12     N/A    WCI 37

$$

ORZ044-251410-
LOWER COLUMBIA BASIN...OREGON

CITY            SKY/WX      TMP DP  RH  WIND    PRES   REMARKS
HERMISTON       CLOUDY      50  47  89  CALM    29.69F
#BOARDMAN 3W    N/A         51  49  93  E5      29.35F
#BOARDMAN 8SW   N/A         50  48  93  E8      29.68F
#ECHO 8SW       N/A         50  45  83  CALM    29.67F
#IONE SCHOOL    N/A         48  39  71  CALM    29.69F
#IRRIGON 4NW    N/A         52  47  83  NE6     N/A
#UMATILLA SCHOOLN/A         46  46  100 CALM    29.74F
#UMATILLA       N/A         49  45  86  CALM    29.68F
$$

ORZ507-251410-
NORTHERN FOOTHILLS OF THE BLUES

CITY            SKY/WX      TMP DP  RH  WIND    PRES   REMARKS
PENDLETON AIRPT FOG         47  46  96  VRB5    29.69F VSB 3/4
#ADAMS 3WNW     N/A         47  46  96  CALM    29.71F
#ATHENA         N/A         46  45  96  CALM    29.73F
#CAYUSE         N/A         46  45  96  CALM    29.70F
#HELIX SCHOOL   N/A         47  46  96  CALM    29.70F
#HELIX 3N       N/A         46  45  96  CALM    29.68F
#HOLDMAN 5SE    N/A         48  47  96  CALM    29.71F
#HOLDMAN 6E     N/A         46  45  96  SE1     29.51F
#M-F FERNDALE   N/A         49  47  93  SE3     29.72F
#M-F GROVE ELEM N/A         49  46  89  W1      29.70F
#M-FREEWATER 5SEN/A         47  46  96  CALM    29.72S
#PENDLETON DNTN N/A         49  47  93  CALM    28.52F
#PDT AQUATIC CTRN/A         50  47  89  CALM    29.70S
#PDT SUNRIDGE   N/A         48  47  96  CALM    29.73S
#PENDLETON 7NW  N/A         48  45  89  E1      26.78F
#PILOT ROCK     N/A         47  43  86  CALM    29.72F
#TUTUILLA       N/A         47  45  93  CALM    29.72F
#UMAPINE 2E     N/A         50  49  96  SW3     29.69F
#WESTON SCHOOL  N/A         45  43  93  W5      29.67F

$$

ORZ508-251410-
SOUTHERN FOOTHILLS OF THE BLUES

CITY            SKY/WX      TMP DP  RH  WIND    PRES   REMARKS
LEXINGTON       CLOUDY      48  48  100 NE6     29.67F FOG
#AJAX           N/A         45  40  82  NE14    29.62F WCI 39
#CONDON SCHOOL  N/A         44  43  96  CALM    29.64F
#CONDON 5W      N/A         42  41  96  E7      29.63F
#HEPPNER EOC    N/A         47  45  93  CALM    29.62F
#HEPPNER 4NE    N/A         43  42  96  E7      29.66F
#LEXINGTON 2SE  N/A         49  47  93  CALM    29.64F
#MIKKALO        N/A         47  44  89  E10     29.67F
#OLEX 4N        N/A         48  46  93  E8      29.68F
#RUGGS 5NE      N/A         44  43  96  E1      29.81F
#RUGGS 2SW      N/A         44  43  96  E1      29.68F

$$

ORZ502-503-251410-
BLUE MOUNTAINS

CITY            SKY/WX      TMP DP  RH  WIND    PRES   REMARKS
MEACHAM         CLOUDY      51  43  74  CALM    29.74S
#BATTLE MTN DOT N/A         50  41  71  S6      N/A
#HARDMAN 10S    N/A         50  37  61  SE2     29.78F
#HEPPNER 15SE   N/A         58  32  37  S2      29.56F
#LADD CYN SMT   N/A         47  41  79  SE8     N/A
#LADD CREEK ODOTN/A         50  44  80  S6      N/A
#N POWDER DOT   N/A         34  35  100 SE1     N/A
#PIKES PEAK     N/A         59  37  44  S9      27.99S
#TOLLGATE       N/A         51  38  61  SW6     29.75F
#TROY SCHOOL    N/A         48  45  89  CALM    29.64F
#UKIAH          N/A         36  35  96  CALM    29.78S
#WESTON 4E      N/A         56  42  59  SE3     29.62F
$$

ORZ505-251410-
JOHN DAY BASIN

CITY            SKY/WX      TMP DP  RH  WIND    PRES   REMARKS
JOHN DAY        CLOUDY      63  29  28  S10     29.72F
#JOHN DAY KJDY  N/A         46  40  79  S1      29.91S
#DAYVILLE SCHOOLN/A         54  40  59  CALM    29.67F
#MT. VERNON 5SE N/A         55  35  47  S7      29.69F
#WINLOCK        N/A         51  40  66  W6      29.76F
$$

ORZ506-251410-
OCHOCO AND JOHN DAY HIGHLANDS

CITY            SKY/WX      TMP DP  RH  WIND    PRES   REMARKS
#BUCK CREEK DOT N/A         46  42  86  SE10    N/A
#HORSE RIDGE DO N/A         55  32  41  SE15    N/A
#KEYES SMT DOT  N/A         57  29  34  SE16G35 N/A
#PAULINA SCHOOL N/A         52  36  54  SE6     29.73F
#PINE MTN OBS   N/A         47  32  56  SE45G73 N/A    WCI 36
#PRAIRIE CITY   N/A         56  32  40  NW1     29.71S
#SENECA         N/A         42  N/A N/A E2      N/A
#SENECA 9NW     N/A         36  35  96  CALM    29.76F
$$

ORZ049-251410-
GRANDE RONDE VALLEY

CITY            SKY/WX      TMP DP  RH  WIND    PRES   REMARKS
LA GRANDE       CLOUDY      45  34  65  NW6     29.76F
#COVE           N/A         43  43  100 CALM    29.70F
#COVE SCHOOL    N/A         43  42  96  E1      29.77F
#COVE 6NW       N/A         40  39  96  CALM    29.82F
#ELGIN 3N       N/A         45  44  96  CALM    29.53S
#ELGIN 1E       N/A         45  41  86  CALM    N/A
#IMBLER SCHOOL  N/A         63  35  35  SW3     29.84S
#ISLAND CITY 4N N/A         50  50  100 E2      29.59R
#LADD CYN DOT   N/A         53  43  69  SE3     N/A
#UNION 1S       N/A         46  42  86  W1      29.65F
$$

ORZ050-251410-
WALLOWA COUNTY

CITY            SKY/WX      TMP DP  RH  WIND    PRES   REMARKS
JOSEPH AIRPORT  MOCLDY      43  39  86  N16     29.75F FOG WCI 35
#ENTERPRISE HS  N/A         41  40  96  CALM    29.82F
#IMNAHA 10S     N/A         43  42  96  CALM    29.78F
#JOSEPH 3N      N/A         40  39  96  NW12    29.79F WCI 33
#JOSEPH 3W      N/A         48  38  68  SW1     29.65S
#LOSTINE        N/A         43  42  96  CALM    29.58F
#MT HOWARD 8000 N/A         47  19  32  S15G41  29.90R WCI 41
#PROMISE 1S     N/A         39  38  96  CALM    29.89F
#SHEEP RDG 7000 N/A         53  18  25  CALM    29.75F
#WALLOWA SCHOOL N/A         43  42  96  CALM    30.72F



$$



USA.gov is the U.S. government's official web portal to all federal, state and local government web resources and services.